Time,TemperatureF,DewpointF,PressureIn,WindDirection,WindDirectionDegrees,WindSpeedMPH,WindSpeedGustMPH,Humidity,HourlyPrecipIn,Conditions,Clouds,dailyrainin,SoftwareType,DateUTC
2013-07-10 00:02:00,77.5,72.0,30.06,NW,304,0.0,3.0,83,0.00,,,0.00,meteohub,2013-07-10 04:02:00,
2013-07-10 00:07:00,77.5,72.0,30.06,NW,304,0.0,3.0,83,0.00,,,0.00,meteohub,2013-07-10 04:07:00,
2013-07-10 00:12:00,77.4,71.8,30.06,NW,304,1.0,3.0,83,0.00,,,0.00,meteohub,2013-07-10 04:12:00,
2013-07-10 00:17:00,77.5,72.3,30.06,NW,304,0.0,3.0,84,0.00,,,0.00,meteohub,2013-07-10 04:17:00,
2013-07-10 00:22:00,77.5,72.0,30.06,NW,304,1.0,3.0,83,0.00,,,0.00,meteohub,2013-07-10 04:22:00,
2013-07-10 00:27:00,77.5,72.0,30.06,NW,304,0.0,3.0,83,0.00,,,0.00,meteohub,2013-07-10 04:27:00,
2013-07-10 00:32:00,77.4,71.8,30.06,ENE,67,0.0,2.0,83,0.00,,,0.00,meteohub,2013-07-10 04:32:00,
2013-07-10 00:37:00,77.4,71.8,30.06,ENE,67,0.0,3.0,83,0.00,,,0.00,meteohub,2013-07-10 04:37:00,
2013-07-10 00:42:00,77.4,72.1,30.06,ENE,67,1.0,3.0,84,0.00,,,0.00,meteohub,2013-07-10 04:42:00,
2013-07-10 00:47:00,77.5,72.3,30.05,ENE,67,1.0,2.0,84,0.00,,,0.00,meteohub,2013-07-10 04:47:00,
2013-07-10 00:52:00,77.4,72.1,30.05,ENE,67,4.0,4.0,84,0.00,,,0.00,meteohub,2013-07-10 04:52:00,
2013-07-10 00:57:00,77.4,72.5,30.06,ENE,67,1.0,4.0,85,0.00,,,0.00,meteohub,2013-07-10 04:57:00,
2013-07-10 01:02:00,77.2,72.3,30.06,ENE,67,1.0,4.0,85,0.00,,,0.00,meteohub,2013-07-10 05:02:00,
2013-07-10 01:07:00,77.2,72.3,30.05,ENE,67,0.0,4.0,85,0.00,,,0.00,meteohub,2013-07-10 05:07:00,
2013-07-10 01:12:00,77.2,72.3,30.05,ENE,67,0.0,3.0,85,0.00,,,0.00,meteohub,2013-07-10 05:12:00,
2013-07-10 01:17:00,77.0,72.1,30.06,ENE,67,1.0,2.0,85,0.00,,,0.00,meteohub,2013-07-10 05:17:00,
2013-07-10 01:22:00,77.0,72.5,30.06,ENE,67,0.0,2.0,86,0.00,,,0.00,meteohub,2013-07-10 05:22:00,
2013-07-10 01:27:00,77.2,72.7,30.06,ENE,67,0.0,2.0,86,0.00,,,0.00,meteohub,2013-07-10 05:27:00,
2013-07-10 01:32:00,77.2,72.7,30.05,ENE,67,1.0,3.0,86,0.00,,,0.00,meteohub,2013-07-10 05:32:00,
2013-07-10 01:37:00,77.2,72.3,30.05,ENE,67,1.0,3.0,85,0.00,,,0.00,meteohub,2013-07-10 05:37:00,
2013-07-10 01:42:00,77.0,72.1,30.05,ENE,67,0.0,2.0,85,0.00,,,0.00,meteohub,2013-07-10 05:42:00,
2013-07-10 01:47:00,76.8,72.0,30.05,ENE,67,0.0,2.0,85,0.00,,,0.00,meteohub,2013-07-10 05:47:00,
2013-07-10 01:52:00,76.6,72.1,30.05,ENE,67,0.0,2.0,86,0.00,,,0.00,meteohub,2013-07-10 05:52:00,
2013-07-10 01:57:00,76.5,72.0,30.05,ENE,67,0.0,0.0,86,0.00,,,0.00,meteohub,2013-07-10 05:57:00,
2013-07-10 02:02:00,76.3,72.1,30.04,ENE,67,0.0,1.0,87,0.00,,,0.00,meteohub,2013-07-10 06:02:00,
2013-07-10 02:07:00,76.3,72.1,30.04,ENE,67,1.0,1.0,87,0.00,,,0.00,meteohub,2013-07-10 06:07:00,
2013-07-10 02:12:00,76.3,72.5,30.04,ENE,67,0.0,1.0,88,0.00,,,0.00,meteohub,2013-07-10 06:12:00,
2013-07-10 02:17:00,76.5,72.3,30.04,ENE,67,1.0,2.0,87,0.00,,,0.00,meteohub,2013-07-10 06:17:00,
2013-07-10 02:22:00,76.5,72.3,30.04,ENE,67,1.0,2.0,87,0.00,,,0.00,meteohub,2013-07-10 06:22:00,
2013-07-10 02:27:00,76.5,72.3,30.04,ENE,67,1.0,2.0,87,0.00,,,0.00,meteohub,2013-07-10 06:27:00,
2013-07-10 02:32:00,76.6,72.5,30.04,ENE,67,0.0,2.0,87,0.00,,,0.00,meteohub,2013-07-10 06:32:00,
2013-07-10 02:37:00,76.8,72.7,30.04,ENE,67,1.0,2.0,87,0.00,,,0.00,meteohub,2013-07-10 06:37:00,
2013-07-10 02:42:00,76.8,72.7,30.04,ENE,67,0.0,2.0,87,0.00,,,0.00,meteohub,2013-07-10 06:42:00,
2013-07-10 02:47:00,76.6,72.5,30.04,ENE,67,1.0,3.0,87,0.00,,,0.00,meteohub,2013-07-10 06:47:00,
2013-07-10 02:52:00,76.5,72.7,30.04,ENE,67,0.0,3.0,88,0.00,,,0.00,meteohub,2013-07-10 06:52:00,
2013-07-10 02:57:00,76.5,72.7,30.03,ENE,67,0.0,3.0,88,0.00,,,0.00,meteohub,2013-07-10 06:57:00,
2013-07-10 03:02:00,76.5,72.7,30.04,ENE,67,0.0,3.0,88,0.00,,,0.00,meteohub,2013-07-10 07:02:00,
2013-07-10 03:07:00,76.6,72.9,30.03,ENE,67,1.0,3.0,88,0.00,,,0.00,meteohub,2013-07-10 07:07:00,
2013-07-10 03:12:00,76.8,73.0,30.04,ENE,67,0.0,3.0,88,0.00,,,0.00,meteohub,2013-07-10 07:12:00,
2013-07-10 03:17:00,76.8,72.7,30.03,ENE,67,0.0,3.0,87,0.00,,,0.00,meteohub,2013-07-10 07:17:00,
2013-07-10 03:22:00,77.0,72.9,30.04,ENE,67,1.0,3.0,87,0.00,,,0.00,meteohub,2013-07-10 07:22:00,
2013-07-10 03:27:00,77.2,73.0,30.04,ENE,67,1.0,3.0,87,0.00,,,0.00,meteohub,2013-07-10 07:27:00,
2013-07-10 03:32:00,77.2,73.0,30.04,ENE,67,1.0,3.0,87,0.00,,,0.00,meteohub,2013-07-10 07:32:00,
2013-07-10 03:37:00,77.2,73.0,30.04,ENE,67,1.0,3.0,87,0.00,,,0.00,meteohub,2013-07-10 07:37:00,
2013-07-10 03:42:00,77.2,73.0,30.04,ENE,67,1.0,3.0,87,0.00,,,0.00,meteohub,2013-07-10 07:42:00,
2013-07-10 03:47:00,77.2,73.0,30.04,ENE,67,1.0,3.0,87,0.00,,,0.00,meteohub,2013-07-10 07:47:00,
2013-07-10 03:52:00,77.0,72.9,30.04,ENE,67,0.0,3.0,87,0.00,,,0.00,meteohub,2013-07-10 07:52:00,
2013-07-10 03:57:00,76.8,72.7,30.04,ENE,67,0.0,3.0,87,0.00,,,0.00,meteohub,2013-07-10 07:57:00,
2013-07-10 04:02:00,76.8,72.7,30.03,ENE,72,2.0,4.0,87,0.00,,,0.00,meteohub,2013-07-10 08:02:00,
2013-07-10 04:07:00,76.8,72.7,30.03,ENE,72,0.0,4.0,87,0.00,,,0.00,meteohub,2013-07-10 08:07:00,
2013-07-10 04:12:00,76.8,72.7,30.04,ENE,73,1.0,4.0,87,0.00,,,0.00,meteohub,2013-07-10 08:12:00,
2013-07-10 04:17:00,76.8,72.7,30.03,ENE,73,2.0,4.0,87,0.00,,,0.00,meteohub,2013-07-10 08:17:00,
2013-07-10 04:22:00,76.8,72.7,30.03,East,82,1.0,6.0,87,0.00,,,0.00,meteohub,2013-07-10 08:22:00,
2013-07-10 04:27:00,76.8,72.7,30.03,East,82,1.0,6.0,87,0.00,,,0.00,meteohub,2013-07-10 08:27:00,
2013-07-10 04:32:00,76.8,72.7,30.04,East,82,1.0,6.0,87,0.00,,,0.00,meteohub,2013-07-10 08:32:00,
2013-07-10 04:37:00,76.8,72.7,30.04,East,82,0.0,5.0,87,0.00,,,0.00,meteohub,2013-07-10 08:37:00,
2013-07-10 04:42:00,76.8,72.7,30.04,East,82,1.0,5.0,87,0.00,,,0.00,meteohub,2013-07-10 08:42:00,
2013-07-10 04:47:00,76.8,72.7,30.04,East,86,2.0,5.0,87,0.00,,,0.00,meteohub,2013-07-10 08:47:00,
2013-07-10 04:52:00,76.8,73.0,30.04,East,86,1.0,5.0,88,0.00,,,0.00,meteohub,2013-07-10 08:52:00,
2013-07-10 04:57:00,76.6,72.9,30.04,ENE,69,1.0,5.0,88,0.00,,,0.00,meteohub,2013-07-10 08:57:00,
2013-07-10 05:02:00,76.6,72.9,30.04,East,82,0.0,5.0,88,0.00,,,0.00,meteohub,2013-07-10 09:02:00,
2013-07-10 05:07:00,76.6,72.9,30.03,East,82,0.0,5.0,88,0.00,,,0.00,meteohub,2013-07-10 09:07:00,
2013-07-10 05:12:00,76.5,72.7,30.03,East,82,0.0,5.0,88,0.00,,,0.00,meteohub,2013-07-10 09:12:00,
2013-07-10 05:17:00,76.5,72.7,30.03,East,82,1.0,3.0,88,0.00,,,0.00,meteohub,2013-07-10 09:17:00,
2013-07-10 05:22:00,76.3,72.5,30.03,East,82,0.0,3.0,88,0.00,,,0.00,meteohub,2013-07-10 09:22:00,
2013-07-10 05:27:00,76.1,72.3,30.04,East,82,0.0,2.0,88,0.00,,,0.00,meteohub,2013-07-10 09:27:00,
2013-07-10 05:32:00,75.9,72.5,30.03,East,82,0.0,2.0,89,0.00,,,0.00,meteohub,2013-07-10 09:32:00,
2013-07-10 05:37:00,75.9,72.5,30.03,East,82,0.0,2.0,89,0.00,,,0.00,meteohub,2013-07-10 09:37:00,
2013-07-10 05:42:00,75.9,72.5,30.03,East,82,0.0,2.0,89,0.00,,,0.00,meteohub,2013-07-10 09:42:00,
2013-07-10 05:47:00,75.7,72.3,30.03,East,82,1.0,3.0,89,0.00,,,0.00,meteohub,2013-07-10 09:47:00,
2013-07-10 05:52:00,75.7,72.3,30.04,East,82,0.0,3.0,89,0.00,,,0.00,meteohub,2013-07-10 09:52:00,
2013-07-10 05:57:00,75.6,72.5,30.04,East,82,0.0,3.0,90,0.00,,,0.00,meteohub,2013-07-10 09:57:00,
2013-07-10 06:02:00,75.6,72.5,30.04,East,82,0.0,2.0,90,0.00,,,0.00,meteohub,2013-07-10 10:02:00,
2013-07-10 06:07:00,75.6,72.5,30.04,East,82,1.0,2.0,90,0.00,,,0.00,meteohub,2013-07-10 10:07:00,
2013-07-10 06:12:00,75.6,72.5,30.03,East,82,1.0,2.0,90,0.00,,,0.00,meteohub,2013-07-10 10:12:00,
2013-07-10 06:17:00,75.6,72.5,30.03,East,82,0.0,3.0,90,0.00,,,0.00,meteohub,2013-07-10 10:17:00,
2013-07-10 06:22:00,75.4,72.3,30.03,East,82,2.0,3.0,90,0.00,,,0.00,meteohub,2013-07-10 10:22:00,
2013-07-10 06:27:00,75.4,72.3,30.03,East,82,0.0,3.0,90,0.00,,,0.00,meteohub,2013-07-10 10:27:00,
2013-07-10 06:32:00,75.4,72.5,30.03,East,82,0.0,3.0,91,0.00,,,0.00,meteohub,2013-07-10 10:32:00,
2013-07-10 06:37:00,75.4,72.3,30.03,East,82,0.0,3.0,90,0.00,,,0.00,meteohub,2013-07-10 10:37:00,
2013-07-10 06:42:00,75.4,72.5,30.03,East,82,1.0,2.0,91,0.00,,,0.00,meteohub,2013-07-10 10:42:00,
2013-07-10 06:47:00,75.4,72.5,30.03,East,82,2.0,3.0,91,0.00,,,0.00,meteohub,2013-07-10 10:47:00,
2013-07-10 06:52:00,75.2,72.3,30.04,East,82,1.0,3.0,91,0.00,,,0.00,meteohub,2013-07-10 10:52:00,
2013-07-10 06:57:00,75.0,72.1,30.03,East,82,0.0,3.0,91,0.00,,,0.00,meteohub,2013-07-10 10:57:00,
2013-07-10 07:02:00,75.4,72.5,30.04,East,82,0.0,3.0,91,0.00,,,0.00,meteohub,2013-07-10 11:02:00,
2013-07-10 07:07:00,75.6,72.7,30.04,East,82,0.0,2.0,91,0.00,,,0.00,meteohub,2013-07-10 11:07:00,
2013-07-10 07:12:00,75.7,72.9,30.04,East,82,2.0,2.0,91,0.00,,,0.00,meteohub,2013-07-10 11:12:00,
2013-07-10 07:17:00,75.7,72.9,30.03,East,82,0.0,2.0,91,0.00,,,0.00,meteohub,2013-07-10 11:17:00,
2013-07-10 07:22:00,75.9,73.0,30.03,East,82,0.0,3.0,91,0.00,,,0.00,meteohub,2013-07-10 11:22:00,
2013-07-10 07:27:00,76.3,73.0,30.03,East,82,1.0,3.0,90,0.00,,,0.00,meteohub,2013-07-10 11:27:00,
2013-07-10 07:32:00,76.5,73.2,30.03,East,82,0.0,3.0,90,0.00,,,0.00,meteohub,2013-07-10 11:32:00,
2013-07-10 07:37:00,76.8,73.4,30.04,East,82,0.0,3.0,89,0.00,,,0.00,meteohub,2013-07-10 11:37:00,
2013-07-10 07:42:00,77.2,73.8,30.04,East,82,0.0,2.0,89,0.00,,,0.00,meteohub,2013-07-10 11:42:00,
2013-07-10 07:47:00,77.4,73.6,30.04,East,82,3.0,3.0,88,0.00,,,0.00,meteohub,2013-07-10 11:47:00,
2013-07-10 07:52:00,77.5,73.8,30.04,East,82,1.0,3.0,88,0.00,,,0.00,meteohub,2013-07-10 11:52:00,
2013-07-10 07:57:00,77.9,73.8,30.04,East,82,2.0,3.0,87,0.00,,,0.00,meteohub,2013-07-10 11:57:00,
2013-07-10 08:02:00,78.1,73.9,30.04,ENE,78,2.0,6.0,87,0.00,,,0.00,meteohub,2013-07-10 12:02:00,
2013-07-10 08:07:00,78.3,73.8,30.04,ENE,78,2.0,6.0,86,0.00,,,0.00,meteohub,2013-07-10 12:07:00,
2013-07-10 08:12:00,78.6,74.1,30.04,ENE,78,2.0,6.0,86,0.00,,,0.00,meteohub,2013-07-10 12:12:00,
2013-07-10 08:17:00,79.0,74.1,30.05,ENE,78,2.0,3.0,85,0.00,,,0.00,meteohub,2013-07-10 12:17:00,
2013-07-10 08:22:00,79.2,73.9,30.05,ENE,78,1.0,3.0,84,0.00,,,0.00,meteohub,2013-07-10 12:22:00,
2013-07-10 08:27:00,79.3,74.1,30.05,ENE,74,2.0,3.0,84,0.00,,,0.00,meteohub,2013-07-10 12:27:00,
2013-07-10 08:32:00,79.3,74.1,30.05,East,80,1.0,3.0,84,0.00,,,0.00,meteohub,2013-07-10 12:32:00,
2013-07-10 08:37:00,79.5,74.3,30.05,ENE,69,0.0,5.0,84,0.00,,,0.00,meteohub,2013-07-10 12:37:00,
2013-07-10 08:42:00,80.1,74.5,30.05,ENE,71,0.0,5.0,83,0.00,,,0.00,meteohub,2013-07-10 12:42:00,
2013-07-10 08:47:00,80.2,74.7,30.05,ENE,74,2.0,5.0,83,0.00,,,0.00,meteohub,2013-07-10 12:47:00,
2013-07-10 08:52:00,80.1,74.5,30.05,ESE,107,1.0,5.0,83,0.00,,,0.00,meteohub,2013-07-10 12:52:00,
2013-07-10 08:57:00,80.2,74.7,30.06,ESE,103,2.0,5.0,83,0.00,,,0.00,meteohub,2013-07-10 12:57:00,
2013-07-10 09:02:00,80.2,74.7,30.06,ESE,119,3.0,5.0,83,0.00,,,0.00,meteohub,2013-07-10 13:02:00,
2013-07-10 09:07:00,80.2,74.7,30.05,SSE,159,0.0,6.0,83,0.00,,,0.00,meteohub,2013-07-10 13:07:00,
2013-07-10 09:12:00,80.2,74.7,30.05,SSE,158,0.0,6.0,83,0.00,,,0.00,meteohub,2013-07-10 13:12:00,
2013-07-10 09:17:00,80.4,74.5,30.06,SSE,158,0.0,6.0,82,0.00,,,0.00,meteohub,2013-07-10 13:17:00,
2013-07-10 09:22:00,81.3,74.8,30.05,SSE,147,0.0,4.0,81,0.00,,,0.00,meteohub,2013-07-10 13:22:00,
2013-07-10 09:27:00,82.0,75.2,30.06,SSE,147,1.0,3.0,80,0.00,,,0.00,meteohub,2013-07-10 13:27:00,
2013-07-10 09:32:00,82.8,75.6,30.06,East,87,1.0,3.0,79,0.00,,,0.00,meteohub,2013-07-10 13:32:00,
2013-07-10 09:37:00,82.9,75.7,30.06,East,82,0.0,5.0,79,0.00,,,0.00,meteohub,2013-07-10 13:37:00,
2013-07-10 09:42:00,82.9,75.0,30.06,ESE,123,0.0,5.0,77,0.00,,,0.00,meteohub,2013-07-10 13:42:00,
2013-07-10 09:47:00,82.9,75.4,30.06,East,97,1.0,6.0,78,0.00,,,0.00,meteohub,2013-07-10 13:47:00,
2013-07-10 09:52:00,82.9,74.7,30.06,East,81,1.0,6.0,76,0.00,,,0.00,meteohub,2013-07-10 13:52:00,
2013-07-10 09:57:00,82.9,73.8,30.05,ENE,63,3.0,6.0,74,0.00,,,0.00,meteohub,2013-07-10 13:57:00,
2013-07-10 10:02:00,83.1,73.6,30.05,NE,46,4.0,6.0,73,0.00,,,0.00,meteohub,2013-07-10 14:02:00,
2013-07-10 10:07:00,83.5,73.9,30.05,NE,42,3.0,5.0,73,0.00,,,0.00,meteohub,2013-07-10 14:07:00,
2013-07-10 10:12:00,83.3,73.4,30.05,NE,44,1.0,5.0,72,0.00,,,0.00,meteohub,2013-07-10 14:12:00,
2013-07-10 10:17:00,83.7,74.1,30.05,SE,127,4.0,5.0,73,0.00,,,0.00,meteohub,2013-07-10 14:17:00,
2013-07-10 10:22:00,84.0,73.9,30.05,SSE,165,0.0,5.0,72,0.00,,,0.00,meteohub,2013-07-10 14:22:00,
2013-07-10 10:27:00,84.6,73.8,30.05,SE,142,1.0,5.0,70,0.00,,,0.00,meteohub,2013-07-10 14:27:00,
2013-07-10 10:32:00,85.3,73.9,30.05,SSE,152,1.0,5.0,69,0.00,,,0.00,meteohub,2013-07-10 14:32:00,
2013-07-10 10:37:00,85.5,74.1,30.05,ESE,105,2.0,5.0,69,0.00,,,0.00,meteohub,2013-07-10 14:37:00,
2013-07-10 10:42:00,85.3,73.9,30.04,NE,44,2.0,6.0,69,0.00,,,0.00,meteohub,2013-07-10 14:42:00,
2013-07-10 10:47:00,85.5,74.1,30.04,NE,50,3.0,6.0,69,0.00,,,0.00,meteohub,2013-07-10 14:47:00,
2013-07-10 10:52:00,85.6,74.3,30.04,NE,53,0.0,6.0,69,0.00,,,0.00,meteohub,2013-07-10 14:52:00,
2013-07-10 10:57:00,85.6,73.9,30.04,NE,43,5.0,6.0,68,0.00,,,0.00,meteohub,2013-07-10 14:57:00,
2013-07-10 11:02:00,85.3,73.6,30.04,East,90,1.0,6.0,68,0.00,,,0.00,meteohub,2013-07-10 15:02:00,
2013-07-10 11:07:00,84.7,73.0,30.04,ESE,113,3.0,7.0,68,0.00,,,0.00,meteohub,2013-07-10 15:07:00,
2013-07-10 11:12:00,84.9,73.2,30.05,ENE,76,0.0,7.0,68,0.00,,,0.00,meteohub,2013-07-10 15:12:00,
2013-07-10 11:17:00,84.9,73.2,30.05,East,92,3.0,7.0,68,0.00,,,0.00,meteohub,2013-07-10 15:17:00,
2013-07-10 11:22:00,84.9,73.6,30.05,East,92,1.0,7.0,69,0.00,,,0.00,meteohub,2013-07-10 15:22:00,
2013-07-10 11:27:00,85.6,73.9,30.04,East,92,2.0,6.0,68,0.00,,,0.00,meteohub,2013-07-10 15:27:00,
2013-07-10 11:32:00,86.4,73.6,30.04,East,89,1.0,5.0,66,0.00,,,0.00,meteohub,2013-07-10 15:32:00,
2013-07-10 11:37:00,86.5,73.4,30.04,East,88,1.0,3.0,65,0.00,,,0.00,meteohub,2013-07-10 15:37:00,
2013-07-10 11:42:00,87.1,74.3,30.04,ENE,57,5.0,5.0,66,0.00,,,0.00,meteohub,2013-07-10 15:42:00,
2013-07-10 11:47:00,87.4,74.3,30.04,NE,56,2.0,7.0,65,0.00,,,0.00,meteohub,2013-07-10 15:47:00,
2013-07-10 11:52:00,87.6,73.0,30.04,West,275,3.0,7.0,62,0.00,,,0.00,meteohub,2013-07-10 15:52:00,
2013-07-10 11:57:00,87.6,73.4,30.04,East,95,5.0,7.0,63,0.00,,,0.00,meteohub,2013-07-10 15:57:00,
2013-07-10 12:02:00,87.3,72.7,30.04,SSE,166,2.0,8.0,62,0.00,,,0.00,meteohub,2013-07-10 16:02:00,
2013-07-10 12:07:00,87.6,73.0,30.04,SE,132,7.0,8.0,62,0.00,,,0.00,meteohub,2013-07-10 16:07:00,
2013-07-10 12:12:00,87.1,72.5,30.04,NNE,21,2.0,8.0,62,0.00,,,0.00,meteohub,2013-07-10 16:12:00,
2013-07-10 12:17:00,87.1,71.4,30.04,NNW,348,0.0,7.0,60,0.00,,,0.00,meteohub,2013-07-10 16:17:00,
2013-07-10 12:22:00,87.3,72.7,30.04,NNW,348,7.0,7.0,62,0.00,,,0.00,meteohub,2013-07-10 16:22:00,
2013-07-10 12:27:00,87.6,73.0,30.04,SSE,162,0.0,8.0,62,0.00,,,0.00,meteohub,2013-07-10 16:27:00,
2013-07-10 12:32:00,88.3,73.2,30.04,NE,38,3.0,8.0,61,0.00,,,0.00,meteohub,2013-07-10 16:32:00,
2013-07-10 12:37:00,88.7,73.6,30.04,ENE,75,0.0,8.0,61,0.00,,,0.00,meteohub,2013-07-10 16:37:00,
2013-07-10 12:42:00,89.2,73.9,30.04,ENE,73,3.0,7.0,61,0.00,,,0.00,meteohub,2013-07-10 16:42:00,
2013-07-10 12:47:00,88.5,72.3,30.04,NE,55,1.0,7.0,59,0.00,,,0.00,meteohub,2013-07-10 16:47:00,
2013-07-10 12:52:00,88.3,72.1,30.04,North,0,2.0,6.0,59,0.00,,,0.00,meteohub,2013-07-10 16:52:00,
2013-07-10 12:57:00,88.0,72.3,30.04,NE,36,3.0,8.0,60,0.00,,,0.00,meteohub,2013-07-10 16:57:00,
2013-07-10 13:02:00,87.4,72.3,30.04,NNE,29,4.0,9.0,61,0.00,,,0.00,meteohub,2013-07-10 17:02:00,
2013-07-10 13:07:00,87.8,72.1,30.04,NNW,342,4.0,9.0,60,0.00,,,0.00,meteohub,2013-07-10 17:07:00,
2013-07-10 13:12:00,86.4,73.6,30.04,NW,317,3.0,10.0,66,0.00,,,0.00,meteohub,2013-07-10 17:12:00,
2013-07-10 13:17:00,85.1,73.8,30.04,West,271,3.0,10.0,69,0.00,,,0.00,meteohub,2013-07-10 17:17:00,
2013-07-10 13:22:00,84.6,74.1,30.04,WNW,301,3.0,11.0,71,0.00,,,0.00,meteohub,2013-07-10 17:22:00,
2013-07-10 13:27:00,85.1,74.1,30.04,West,279,9.0,11.0,70,0.00,,,0.00,meteohub,2013-07-10 17:27:00,
2013-07-10 13:32:00,85.5,74.5,30.03,WNW,295,3.0,12.0,70,0.00,,,0.00,meteohub,2013-07-10 17:32:00,
2013-07-10 13:37:00,84.9,74.1,30.03,WSW,257,6.0,12.0,70,0.00,,,0.00,meteohub,2013-07-10 17:37:00,
2013-07-10 13:42:00,84.4,73.9,30.03,NW,320,4.0,13.0,71,0.00,,,0.00,meteohub,2013-07-10 17:42:00,
2013-07-10 13:47:00,84.7,74.3,30.03,West,273,12.0,13.0,71,0.00,,,0.00,meteohub,2013-07-10 17:47:00,
2013-07-10 13:52:00,84.6,74.1,30.02,NW,314,4.0,14.0,71,0.00,,,0.00,meteohub,2013-07-10 17:52:00,
2013-07-10 13:57:00,84.7,74.3,30.02,West,265,5.0,14.0,71,0.00,,,0.00,meteohub,2013-07-10 17:57:00,
2013-07-10 14:02:00,85.3,74.8,30.02,North,5,1.0,14.0,71,0.00,,,0.00,meteohub,2013-07-10 18:02:00,
2013-07-10 14:07:00,86.2,75.2,30.01,NNW,331,3.0,12.0,70,0.00,,,0.00,meteohub,2013-07-10 18:07:00,
2013-07-10 14:12:00,86.5,75.2,30.01,North,5,4.0,12.0,69,0.00,,,0.00,meteohub,2013-07-10 18:12:00,
2013-07-10 14:17:00,86.4,74.5,30.00,West,271,7.0,11.0,68,0.00,,,0.00,meteohub,2013-07-10 18:17:00,
2013-07-10 14:22:00,86.2,74.8,30.00,NW,305,8.0,11.0,69,0.00,,,0.00,meteohub,2013-07-10 18:22:00,
2013-07-10 14:27:00,86.2,74.8,30.00,WNW,282,6.0,15.0,69,0.00,,,0.00,meteohub,2013-07-10 18:27:00,
2013-07-10 14:32:00,86.5,74.3,30.00,WNW,286,11.0,15.0,67,0.00,,,0.00,meteohub,2013-07-10 18:32:00,
2013-07-10 14:37:00,86.2,74.3,29.99,WNW,286,3.0,12.0,68,0.00,,,0.00,meteohub,2013-07-10 18:37:00,
2013-07-10 14:42:00,86.4,74.5,29.99,West,264,8.0,12.0,68,0.00,,,0.00,meteohub,2013-07-10 18:42:00,
2013-07-10 14:47:00,86.7,74.5,29.99,WNW,290,4.0,12.0,67,0.00,,,0.00,meteohub,2013-07-10 18:47:00,
2013-07-10 14:52:00,87.1,75.2,29.99,WSW,248,3.0,11.0,68,0.00,,,0.00,meteohub,2013-07-10 18:52:00,
2013-07-10 14:57:00,88.0,75.6,29.98,WNW,288,4.0,11.0,67,0.00,,,0.00,meteohub,2013-07-10 18:57:00,
2013-07-10 15:02:00,87.4,74.3,29.98,West,275,7.0,8.0,65,0.00,,,0.00,meteohub,2013-07-10 19:02:00,
2013-07-10 15:07:00,86.5,74.3,29.98,NNE,24,3.0,14.0,67,0.00,,,0.00,meteohub,2013-07-10 19:07:00,
2013-07-10 15:12:00,87.3,74.5,29.98,WNW,288,5.0,14.0,66,0.00,,,0.00,meteohub,2013-07-10 19:12:00,
2013-07-10 15:17:00,87.4,75.2,29.98,WNW,299,4.0,14.0,67,0.00,,,0.00,meteohub,2013-07-10 19:17:00,
2013-07-10 15:22:00,87.4,74.7,29.98,NW,311,7.0,12.0,66,0.00,,,0.00,meteohub,2013-07-10 19:22:00,
2013-07-10 15:27:00,86.5,74.7,29.97,NNW,329,6.0,12.0,68,0.00,,,0.00,meteohub,2013-07-10 19:27:00,
2013-07-10 15:32:00,85.8,74.5,29.97,West,269,8.0,11.0,69,0.00,,,0.00,meteohub,2013-07-10 19:32:00,
2013-07-10 15:37:00,85.8,74.8,29.97,WNW,287,1.0,11.0,70,0.00,,,0.00,meteohub,2013-07-10 19:37:00,
2013-07-10 15:42:00,86.7,74.8,29.97,WNW,290,6.0,11.0,68,0.00,,,0.00,meteohub,2013-07-10 19:42:00,
2013-07-10 15:47:00,86.7,74.8,29.97,WNW,301,6.0,11.0,68,0.00,,,0.00,meteohub,2013-07-10 19:47:00,
2013-07-10 15:52:00,87.4,75.9,29.96,WNW,294,9.0,13.0,69,0.00,,,0.00,meteohub,2013-07-10 19:52:00,
2013-07-10 15:57:00,87.3,75.4,29.96,WNW,288,8.0,13.0,68,0.00,,,0.00,meteohub,2013-07-10 19:57:00,
2013-07-10 16:02:00,86.7,74.8,29.96,West,273,4.0,12.0,68,0.00,,,0.00,meteohub,2013-07-10 20:02:00,
2013-07-10 16:07:00,86.4,74.5,29.96,West,261,2.0,15.0,68,0.00,,,0.00,meteohub,2013-07-10 20:07:00,
2013-07-10 16:12:00,85.8,73.9,29.96,WNW,287,13.0,15.0,68,0.00,,,0.00,meteohub,2013-07-10 20:12:00,
2013-07-10 16:17:00,85.6,74.3,29.96,WNW,296,8.0,13.0,69,0.00,,,0.00,meteohub,2013-07-10 20:17:00,
2013-07-10 16:22:00,86.2,74.3,29.96,WSW,253,8.0,13.0,68,0.00,,,0.00,meteohub,2013-07-10 20:22:00,
2013-07-10 16:27:00,85.8,73.9,29.96,North,351,2.0,13.0,68,0.00,,,0.00,meteohub,2013-07-10 20:27:00,
2013-07-10 16:32:00,85.6,73.9,29.95,WNW,294,8.0,13.0,68,0.00,,,0.00,meteohub,2013-07-10 20:32:00,
2013-07-10 16:37:00,85.8,74.5,29.95,West,273,6.0,10.0,69,0.00,,,0.00,meteohub,2013-07-10 20:37:00,
2013-07-10 16:42:00,86.4,74.5,29.95,WNW,288,7.0,14.0,68,0.00,,,0.00,meteohub,2013-07-10 20:42:00,
2013-07-10 16:47:00,86.4,74.5,29.95,WSW,242,7.0,14.0,68,0.00,,,0.00,meteohub,2013-07-10 20:47:00,
2013-07-10 16:52:00,86.2,73.9,29.94,West,263,7.0,14.0,67,0.00,,,0.00,meteohub,2013-07-10 20:52:00,
2013-07-10 16:57:00,86.4,74.5,29.94,WSW,257,2.0,13.0,68,0.00,,,0.00,meteohub,2013-07-10 20:57:00,
2013-07-10 17:02:00,86.7,74.5,29.94,WNW,295,6.0,13.0,67,0.00,,,0.00,meteohub,2013-07-10 21:02:00,
2013-07-10 17:07:00,86.5,73.8,29.94,WNW,285,7.0,11.0,66,0.00,,,0.00,meteohub,2013-07-10 21:07:00,
2013-07-10 17:12:00,86.5,73.8,29.94,WNW,292,7.0,13.0,66,0.00,,,0.00,meteohub,2013-07-10 21:12:00,
2013-07-10 17:17:00,86.7,73.9,29.94,WSW,250,6.0,13.0,66,0.00,,,0.00,meteohub,2013-07-10 21:17:00,
2013-07-10 17:22:00,86.7,74.5,29.94,WSW,249,7.0,13.0,67,0.00,,,0.00,meteohub,2013-07-10 21:22:00,
2013-07-10 17:27:00,85.8,73.9,29.94,NW,304,4.0,14.0,68,0.00,,,0.00,meteohub,2013-07-10 21:27:00,
2013-07-10 17:32:00,85.8,74.5,29.94,WNW,283,7.0,14.0,69,0.00,,,0.00,meteohub,2013-07-10 21:32:00,
2013-07-10 17:37:00,85.8,73.9,29.94,West,270,6.0,14.0,68,0.00,,,0.00,meteohub,2013-07-10 21:37:00,
2013-07-10 17:42:00,86.0,74.1,29.94,NW,304,11.0,11.0,68,0.00,,,0.00,meteohub,2013-07-10 21:42:00,
2013-07-10 17:47:00,86.2,74.3,29.94,NW,319,5.0,13.0,68,0.00,,,0.00,meteohub,2013-07-10 21:47:00,
2013-07-10 17:52:00,86.2,74.3,29.94,WNW,297,4.0,14.0,68,0.00,,,0.00,meteohub,2013-07-10 21:52:00,
2013-07-10 18:02:00,86.0,74.1,29.94,WNW,299,8.0,12.0,68,0.00,,,0.00,meteohub,2013-07-10 22:02:00,
2013-07-10 18:07:00,86.2,74.3,29.94,NNW,339,4.0,13.0,68,0.00,,,0.00,meteohub,2013-07-10 22:07:00,
2013-07-10 18:12:00,86.4,74.1,29.94,WNW,298,8.0,13.0,67,0.00,,,0.00,meteohub,2013-07-10 22:12:00,
2013-07-10 18:17:00,86.4,74.1,29.94,West,276,3.0,13.0,67,0.00,,,0.00,meteohub,2013-07-10 22:17:00,
2013-07-10 18:22:00,86.2,73.9,29.94,WNW,302,8.0,12.0,67,0.00,,,0.00,meteohub,2013-07-10 22:22:00,
2013-07-10 18:27:00,85.6,74.3,29.93,WSW,257,1.0,13.0,69,0.00,,,0.00,meteohub,2013-07-10 22:27:00,
2013-07-10 18:32:00,85.8,73.9,29.93,WNW,289,5.0,13.0,68,0.00,,,0.00,meteohub,2013-07-10 22:32:00,
2013-07-10 18:37:00,86.0,74.7,29.94,NW,306,4.0,13.0,69,0.00,,,0.00,meteohub,2013-07-10 22:37:00,
2013-07-10 18:42:00,86.2,74.8,29.93,WNW,295,5.0,11.0,69,0.00,,,0.00,meteohub,2013-07-10 22:42:00,
2013-07-10 18:47:00,85.8,74.5,29.94,NW,304,3.0,11.0,69,0.00,,,0.00,meteohub,2013-07-10 22:47:00,
2013-07-10 18:52:00,86.2,74.8,29.93,NW,304,2.0,11.0,69,0.00,,,0.00,meteohub,2013-07-10 22:52:00,
2013-07-10 18:57:00,86.2,74.3,29.93,NW,306,5.0,11.0,68,0.00,,,0.00,meteohub,2013-07-10 22:57:00,
2013-07-10 19:02:00,85.8,74.5,29.93,WNW,297,8.0,11.0,69,0.00,,,0.00,meteohub,2013-07-10 23:02:00,
2013-07-10 19:07:00,85.3,73.9,29.92,WNW,286,8.0,14.0,69,0.00,,,0.00,meteohub,2013-07-10 23:07:00,
2013-07-10 19:12:00,84.9,74.5,29.93,WNW,284,5.0,14.0,71,0.00,,,0.00,meteohub,2013-07-10 23:12:00,
2013-07-10 19:17:00,85.3,74.8,29.93,WNW,298,6.0,14.0,71,0.00,,,0.00,meteohub,2013-07-10 23:17:00,
2013-07-10 19:22:00,85.3,74.8,29.93,NW,315,7.0,14.0,71,0.00,,,0.00,meteohub,2013-07-10 23:22:00,
2013-07-10 19:27:00,84.9,74.5,29.94,NNW,338,4.0,12.0,71,0.00,,,0.00,meteohub,2013-07-10 23:27:00,
2013-07-10 19:32:00,85.5,74.5,29.93,WNW,300,7.0,12.0,70,0.00,,,0.00,meteohub,2013-07-10 23:32:00,
2013-07-10 19:37:00,85.5,74.5,29.93,WNW,302,9.0,12.0,70,0.00,,,0.00,meteohub,2013-07-10 23:37:00,
2013-07-10 19:42:00,85.5,74.1,29.93,WNW,283,5.0,14.0,69,0.00,,,0.00,meteohub,2013-07-10 23:42:00,
2013-07-10 19:47:00,85.3,74.3,29.94,WNW,298,2.0,14.0,70,0.00,,,0.00,meteohub,2013-07-10 23:47:00,
2013-07-10 19:52:00,85.1,74.1,29.93,WNW,298,9.0,14.0,70,0.00,,,0.00,meteohub,2013-07-10 23:52:00,
2013-07-10 19:57:00,84.9,74.5,29.94,NW,319,2.0,11.0,71,0.00,,,0.00,meteohub,2013-07-10 23:57:00,
2013-07-10 20:02:00,85.1,74.1,29.93,NW,306,5.0,11.0,70,0.00,,,0.00,meteohub,2013-07-11 00:02:00,
2013-07-10 20:07:00,84.9,74.5,29.94,WNW,288,1.0,10.0,71,0.00,,,0.00,meteohub,2013-07-11 00:07:00,
2013-07-10 20:12:00,84.7,74.3,29.95,WNW,302,3.0,9.0,71,0.00,,,0.00,meteohub,2013-07-11 00:12:00,
2013-07-10 20:17:00,84.7,74.7,29.96,SSE,156,12.0,12.0,72,0.00,,,0.00,meteohub,2013-07-11 00:17:00,
2013-07-10 20:22:00,81.1,72.1,29.96,SE,141,4.0,18.0,74,0.00,,,0.00,meteohub,2013-07-11 00:22:00,
2013-07-10 20:27:00,79.2,72.1,29.96,SE,139,7.0,18.0,79,0.00,,,0.00,meteohub,2013-07-11 00:27:00,
2013-07-10 20:32:00,78.4,72.1,29.96,SE,140,4.0,18.0,81,0.00,,,0.00,meteohub,2013-07-11 00:32:00,
2013-07-10 20:42:00,79.2,72.5,29.95,SE,131,5.0,13.0,80,0.00,,,0.00,meteohub,2013-07-11 00:42:00,
2013-07-10 20:47:00,79.0,72.3,29.95,SSE,167,4.0,13.0,80,0.00,,,0.00,meteohub,2013-07-11 00:47:00,
2013-07-10 20:52:00,78.3,72.0,29.96,SE,142,8.0,13.0,81,0.00,,,0.00,meteohub,2013-07-11 00:52:00,
2013-07-10 20:57:00,77.9,72.0,29.96,SE,144,4.0,13.0,82,0.00,,,0.00,meteohub,2013-07-11 00:57:00,
2013-07-10 21:02:00,77.5,72.3,29.96,SE,125,4.0,13.0,84,0.00,,,0.00,meteohub,2013-07-11 01:02:00,
2013-07-10 21:07:00,77.4,72.1,29.97,East,82,2.0,12.0,84,0.00,,,0.00,meteohub,2013-07-11 01:07:00,
2013-07-10 21:12:00,77.4,72.1,29.97,East,95,2.0,10.0,84,0.00,,,0.00,meteohub,2013-07-11 01:12:00,
2013-07-10 21:17:00,77.5,72.3,29.97,NE,42,5.0,10.0,84,0.00,,,0.00,meteohub,2013-07-11 01:17:00,
2013-07-10 21:22:00,77.4,72.1,29.97,NE,44,3.0,8.0,84,0.00,,,0.00,meteohub,2013-07-11 01:22:00,
2013-07-10 21:27:00,76.8,72.0,29.98,NNE,21,3.0,13.0,85,0.00,,,0.00,meteohub,2013-07-11 01:27:00,
2013-07-10 21:32:00,76.3,71.4,29.97,North,5,3.0,13.0,85,0.00,,,0.00,meteohub,2013-07-11 01:32:00,
2013-07-10 21:37:00,75.6,71.1,29.97,North,355,4.0,10.0,86,0.00,,,0.00,meteohub,2013-07-11 01:37:00,
2013-07-10 21:42:00,75.0,70.9,29.97,North,351,5.0,10.0,87,0.00,,,0.00,meteohub,2013-07-11 01:42:00,
2013-07-10 21:47:00,74.7,70.9,29.98,NNW,342,7.0,10.0,88,0.00,,,0.00,meteohub,2013-07-11 01:47:00,
2013-07-10 21:52:00,74.5,71.1,29.99,NNW,344,5.0,10.0,89,0.00,,,0.00,meteohub,2013-07-11 01:52:00,
2013-07-10 21:57:00,74.1,71.1,29.99,NNW,334,3.0,10.0,90,0.00,,,0.00,meteohub,2013-07-11 01:57:00,
2013-07-10 22:02:00,74.1,71.2,29.99,North,0,5.0,10.0,91,0.01,,,0.01,meteohub,2013-07-11 02:02:00,
2013-07-10 22:07:00,74.1,71.2,29.99,WNW,284,8.0,10.0,91,0.01,,,0.01,meteohub,2013-07-11 02:07:00,
2013-07-10 22:12:00,73.9,71.1,29.99,NW,316,3.0,11.0,91,0.01,,,0.01,meteohub,2013-07-11 02:12:00,
2013-07-10 22:17:00,73.9,71.4,29.99,NNE,22,0.0,11.0,92,0.01,,,0.01,meteohub,2013-07-11 02:17:00,
2013-07-10 22:22:00,73.9,71.4,30.00,ENE,78,1.0,11.0,92,0.01,,,0.01,meteohub,2013-07-11 02:22:00,
2013-07-10 22:27:00,73.9,71.4,30.00,NE,51,2.0,6.0,92,0.01,,,0.01,meteohub,2013-07-11 02:27:00,
2013-07-10 22:32:00,73.9,71.4,30.00,ENE,72,0.0,6.0,92,0.01,,,0.01,meteohub,2013-07-11 02:32:00,
2013-07-10 22:37:00,74.1,71.6,30.00,ENE,72,0.0,6.0,92,0.02,,,0.02,meteohub,2013-07-11 02:37:00,
2013-07-10 22:42:00,73.9,71.4,30.00,ENE,72,2.0,6.0,92,0.02,,,0.02,meteohub,2013-07-11 02:42:00,
2013-07-10 22:47:00,73.9,71.8,29.99,ENE,72,0.0,2.0,93,0.03,,,0.03,meteohub,2013-07-11 02:47:00,
2013-07-10 22:52:00,74.1,72.0,29.99,ENE,72,0.0,2.0,93,0.03,,,0.03,meteohub,2013-07-11 02:52:00,
2013-07-10 22:57:00,74.1,72.0,29.99,ENE,72,0.0,2.0,93,0.03,,,0.03,meteohub,2013-07-11 02:57:00,
2013-07-10 23:02:00,74.1,72.0,29.99,ENE,72,0.0,1.0,93,0.02,,,0.03,meteohub,2013-07-11 03:02:00,
2013-07-10 23:07:00,74.5,72.3,29.99,ENE,60,3.0,3.0,93,0.02,,,0.03,meteohub,2013-07-11 03:07:00,
2013-07-10 23:12:00,74.5,72.3,29.99,NNE,17,2.0,4.0,93,0.02,,,0.03,meteohub,2013-07-11 03:12:00,
2013-07-10 23:17:00,74.1,72.0,30.00,NNE,16,4.0,5.0,93,0.02,,,0.03,meteohub,2013-07-11 03:17:00,
2013-07-10 23:22:00,74.1,72.0,30.00,NNE,14,2.0,5.0,93,0.02,,,0.03,meteohub,2013-07-11 03:22:00,
2013-07-10 23:27:00,73.9,71.8,30.00,NNE,13,3.0,5.0,93,0.02,,,0.03,meteohub,2013-07-11 03:27:00,
2013-07-10 23:32:00,73.8,71.6,30.00,NNW,346,2.0,6.0,93,0.01,,,0.03,meteohub,2013-07-11 03:32:00,
2013-07-10 23:37:00,73.8,71.6,30.00,North,350,0.0,6.0,93,0.01,,,0.03,meteohub,2013-07-11 03:37:00,
2013-07-10 23:42:00,73.9,71.8,30.00,North,351,2.0,6.0,93,0.01,,,0.03,meteohub,2013-07-11 03:42:00,
2013-07-10 23:47:00,73.9,71.8,30.00,NNE,17,3.0,5.0,93,0.00,,,0.03,meteohub,2013-07-11 03:47:00,
2013-07-10 23:52:00,73.9,71.8,30.00,NNE,23,3.0,4.0,93,0.00,,,0.03,meteohub,2013-07-11 03:52:00,
2013-07-10 23:57:00,73.9,71.8,30.00,NNE,20,2.0,5.0,93,0.00,,,0.03,meteohub,2013-07-11 03:57:00,